Location: Gadern
(49.5873°N, 8.8138°E)
Time: 21:08:04
(UTC+00:00)

ISS - Pass Details

Date: 19 May 2025
Orbit: 415 x 417 km, 51.6° (Epoch: 15 June)

Event Time Altitude Azimuth Distance (km) Brightness Sun altitude
Rises 21:53:13 0° 288° (WNW) 2,361 0.7 -17.7°
Reaches altitude 10° 21:55:23 10° 280° (W) 1,494 -0.6 -17.9°
Enters shadow 21:58:14 37° 225° (SW) 663 -3.0 -18.0°
